[[{"header":{"parameterUnit":"m.s-1","parameterCategory":1,"la1":30.2992,"la2":30.254,"lo1":-89.0895,"lo2":-89.0443,"dy":0.0025,"dx":0.0025,"nx":19,"ny":19,"refTime":"2026-04-09T03:00:00:Z","depth":0,"parameterNumber":2,"parameterNumberName":"U-component_of_WINDS"},"data":[0,0,0,-5.8165,-5.8167,-5.8219,-5.8219,-5.8324,-5.8326,0,0,0,0,0,0,0,0,0,0,0,-5.8174,-5.8175,-5.8165,-5.8167,-5.8219,-5.8219,-5.8324,-5.8326,0,0,0,0,0,0,0,0,0,0,0,-5.8173,-5.8175,-5.8177,-5.8167,-5.8219,-5.8219,-5.8324,-5.8271,0,0,0,0,0,0,0,0,0,0,-5.8214,-5.8244,-5.8174,-5.8177,-5.8168,-5.8219,-5.8219,-5.8268,-5.8274,-5.8318,0,-5.8362,0,-5.8346,-5.8335,-5.8336,0,0,0,-5.815,-5.8239,-5.8232,-5.8177,-5.8169,-5.8219,-5.8191,-5.8271,-5.8278,-5.8327,-5.8364,-5.8366,-5.8348,-5.8336,-5.8337,-5.8647,-5.865,0,0,-5.8147,-5.8196,-5.8227,-5.8238,-5.8232,-5.8189,-5.8192,-5.8275,-5.8318,-5.8364,-5.8368,-5.835,-5.8337,-5.8338,-5.8645,-5.8648,0,0,0,-5.815,-5.8194,-5.8184,-5.8235,-5.8241,-5.8191,-5.8195,-5.8315,-5.8307,-5.8369,-5.8351,-5.8338,-5.834,-5.8643,-5.8646,-5.8807,0,0,0,-5.8148,-5.8196,-5.8184,-5.8214,-5.824,-5.8278,-5.8234,-5.8301,-5.8309,-5.835,-5.8338,-5.8341,-5.864,-5.8644,-5.8797,-5.8875,0,0,0,-5.8162,-5.8198,-5.8213,-5.8217,-5.8241,-5.8276,-5.8273,-5.8302,-5.8299,-5.8336,-5.8341,-5.8638,-5.8644,-5.8788,-5.8861,-5.8973,0,0,0,-5.8191,-5.8355,-5.8217,-5.8392,-5.8241,-5.8375,-5.8271,-5.8369,-5.8419,-5.8339,-5.864,-5.8646,-5.8786,-5.8851,-5.8963,-5.9076,-5.9128,0,0,-5.8425,-5.8385,-5.8484,-5.8362,-5.8533,-5.8363,-5.8558,-5.8558,-5.8516,-5.8606,-5.8613,-5.88,-5.886,-5.8971,-5.9396,-5.9437,0,0,0,-5.8575,-5.8647,-5.8681,-5.8732,-5.8737,-5.8747,-5.8711,-5.8712,-5.8786,-5.8572,-5.8869,-5.8902,-5.8966,-5.9017,-5.9052,-5.9104,-5.8671,-5.8671,-5.867,-5.8975,-5.8914,-5.9075,-5.9021,-5.9071,-5.9034,-5.9069,-5.9063,-5.8985,-5.9057,-5.9084,-5.9349,-5.9412,-5.9438,-5.9492,-5.9137,-5.9138,-5.9138,-5.9139,-5.9313,-5.9406,-5.93,-5.9418,-5.9353,-5.9451,-5.9422,-5.9364,-5.9447,-5.9324,-5.9376,-5.9249,-5.9485,-5.9529,-5.915,-5.9148,-5.9147,-5.9146,-5.9145,-5.9569,-5.9603,-5.9601,-5.9669,-5.9729,-5.9667,-5.9752,-5.9688,-5.9629,-5.9681,-5.9703,-5.9701,-5.9691,-5.9696,-5.9697,-5.9698,-5.9699,-5.9699,-5.97,-5.9837,-5.9829,-5.9908,-5.9928,-5.9953,-5.9977,-5.9942,-5.9965,-5.9974,-5.9922,-5.9921,-5.9839,-5.9519,-5.9441,-5.9714,-5.9712,-5.971,-5.9708,-5.9707,-6.0204,-6.0111,-6.0234,-6.0259,-6.0277,-6.0341,-6.0259,-6.0312,-6.0321,-6.0366,-6.0271,-6.0045,-5.9999,-5.9971,-5.9906,-6.0283,-6.0283,-6.0283,-6.0283,-6.0422,-6.0392,-6.0504,-6.0549,-6.0585,-6.0524,-6.0666,-6.0641,-6.06,-6.0603,-6.0539,-6.0447,-6.0421,-6.039,-6.0353,-6.0291,-6.0758,-6.0759,-6.0759,-6.0644,-6.0616,-6.0749,-6.0708,-6.0717,-6.0727,-6.0859,-6.0916,-6.085,-6.0777,-6.0604,-6.0584,-6.0434,-6.0389,-6.0313,-6.0257,-6.0142,0,0]},{"header":{"parameterUnit":"m.s-1","parameterCategory":1,"la1":30.2992,"la2":30.254,"lo1":-89.0895,"lo2":-89.0443,"dy":0.0025,"dx":0.0025,"nx":19,"ny":19,"refTime":"2026-04-09T03:00:00:Z","depth":0,"parameterNumber":3,"parameterNumberName":"V-component_of_WINDS"},"data":[0,0,0,1.5131,1.513,1.5085,1.5085,1.5013,1.5012,0,0,0,0,0,0,0,0,0,0,0,1.5139,1.5138,1.5131,1.513,1.5085,1.5085,1.5013,1.5012,0,0,0,0,0,0,0,0,0,0,0,1.5139,1.5138,1.5138,1.513,1.5085,1.5085,1.5013,1.5052,0,0,0,0,0,0,0,0,0,0,1.5098,1.5099,1.5139,1.5138,1.513,1.5085,1.5085,1.5054,1.5049,1.5028,0,1.501,0,1.501,1.5007,1.5006,0,0,0,1.5134,1.5103,1.5097,1.5137,1.5129,1.5085,1.5106,1.5051,1.5046,1.5022,1.501,1.5007,1.5009,1.5006,1.5006,1.488,1.488,0,0,1.5136,1.5127,1.51,1.5093,1.5103,1.5108,1.5105,1.5048,1.5033,1.5009,1.5006,1.5008,1.5005,1.5005,1.4881,1.488,0,0,0,1.5141,1.5128,1.5124,1.5096,1.5089,1.5106,1.5103,1.5035,1.5035,1.5005,1.5007,1.5005,1.5004,1.4882,1.4881,1.4834,0,0,0,1.5143,1.5131,1.5124,1.5118,1.509,1.5062,1.5091,1.5039,1.5033,1.5008,1.5005,1.5003,1.4883,1.4881,1.4837,1.4812,0,0,0,1.5144,1.5131,1.5123,1.5118,1.5098,1.5063,1.506,1.5037,1.5034,1.5006,1.5003,1.4883,1.4882,1.484,1.4817,1.4775,0,0,0,1.5141,1.5081,1.5122,1.5056,1.5099,1.5037,1.506,1.5014,1.4985,1.5005,1.4883,1.4881,1.4841,1.4819,1.4778,1.4737,1.472,0,0,1.5059,1.5071,1.5033,1.5068,1.4997,1.5044,1.4965,1.4946,1.4951,1.4903,1.49,1.4836,1.4817,1.4776,1.4632,1.4618,0,0,0,1.5003,1.4975,1.4959,1.4933,1.492,1.4905,1.4901,1.4894,1.4854,1.4926,1.4812,1.4801,1.4777,1.4757,1.4746,1.4725,1.4872,1.4873,1.4873,1.487,1.4883,1.482,1.4828,1.4803,1.4801,1.478,1.477,1.4788,1.4761,1.4745,1.4657,1.4634,1.4625,1.4603,1.4728,1.4728,1.4727,1.4727,1.4749,1.471,1.4741,1.469,1.4704,1.466,1.4656,1.4671,1.4631,1.467,1.4649,1.4687,1.461,1.4591,1.4724,1.4724,1.4725,1.4725,1.4725,1.466,1.4644,1.464,1.4605,1.4577,1.4587,1.4548,1.4562,1.4574,1.4555,1.4538,1.4539,1.4539,1.4547,1.4547,1.4546,1.4546,1.4546,1.4546,1.4568,1.4566,1.4533,1.4517,1.4503,1.4486,1.4485,1.4471,1.4458,1.447,1.447,1.4489,1.4602,1.4628,1.4541,1.4542,1.4542,1.4543,1.4543,1.4434,1.4468,1.4416,1.4403,1.4385,1.4355,1.4376,1.4346,1.4336,1.4316,1.4342,1.4425,1.4435,1.4445,1.4466,1.4342,1.4342,1.4342,1.4342,1.4356,1.4366,1.4317,1.4295,1.4274,1.4288,1.4228,1.4228,1.4232,1.4226,1.4247,1.4278,1.4288,1.4293,1.4305,1.4325,1.4168,1.4168,1.4167,1.4273,1.4282,1.4228,1.4237,1.4225,1.4214,1.4157,1.4128,1.4139,1.4161,1.4221,1.4229,1.4279,1.4295,1.4313,1.4332,1.4369,0,0]}]]